DAL5632 KLAX-KLAS

Flight info

Callsign DAL5632
Flight time N/A
Altitude 29000
Route OSHNN1 MISEN RNDRZ4
Aircraft B737/M-SDE2E3FGHIRWXY/LB1D1

Departure

Time 2026-04-20 05:44
Airport Los Angeles International Airport (KLAX)

Arrival

Time N/A
Airport Harry Reid International Airport (KLAS)
Time Latitude Longitude Altitude Speed Heading
2026-04-20 05:08 33.94663 -118.40490 125 ft 0 kts 117°
2026-04-20 05:31 33.94665 -118.40494 125 ft 2 kts 117°
2026-04-20 05:31 33.94672 -118.40511 119 ft 2 kts 117°
2026-04-20 05:32 33.94680 -118.40528 119 ft 2 kts 117°
2026-04-20 05:32 33.94687 -118.40546 120 ft 2 kts 117°
2026-04-20 05:32 33.94691 -118.40555 122 ft 0 kts 117°
2026-04-20 05:38 33.94691 -118.40554 122 ft 0 kts 117°
2026-04-20 05:38 33.94686 -118.40520 119 ft 7 kts 70°
2026-04-20 05:38 33.94724 -118.40528 124 ft 7 kts 307°
2026-04-20 05:39 33.94755 -118.40568 121 ft 7 kts 323°
2026-04-20 05:39 33.94796 -118.40593 121 ft 7 kts 331°
2026-04-20 05:39 33.94838 -118.40610 123 ft 6 kts 355°
2026-04-20 05:39 33.94866 -118.40574 123 ft 6 kts 76°
2026-04-20 05:40 33.94876 -118.40521 122 ft 7 kts 86°
2026-04-20 05:40 33.94879 -118.40462 121 ft 8 kts 85°
2026-04-20 05:40 33.94886 -118.40394 125 ft 9 kts 82°
2026-04-20 05:40 33.94894 -118.40319 125 ft 10 kts 84°
2026-04-20 05:41 33.94896 -118.40288 125 ft 0 kts 84°
2026-04-20 05:41 33.94897 -118.40286 125 ft 0 kts 84°
2026-04-20 05:41 33.94898 -118.40269 123 ft 4 kts 84°
2026-04-20 05:41 33.94903 -118.40214 123 ft 9 kts 84°
2026-04-20 05:42 33.94910 -118.40140 125 ft 0 kts 83°
2026-04-20 05:42 33.94912 -118.40119 125 ft 6 kts 83°
2026-04-20 05:42 33.94931 -118.40077 125 ft 6 kts 34°
2026-04-20 05:42 33.94979 -118.40071 122 ft 10 kts
2026-04-20 05:43 33.95019 -118.40144 121 ft 16 kts 266°
2026-04-20 05:43 33.94969 -118.40575 125 ft 90 kts 262°
2026-04-20 05:43 33.94869 -118.41582 126 ft 152 kts 264°
2026-04-20 05:43 33.94752 -118.42999 339 ft 185 kts 264°
2026-04-20 05:44 33.94586 -118.44710 534 ft 224 kts 262°
2026-04-20 05:44 33.94381 -118.46609 1343 ft 225 kts 263°
2026-04-20 05:44 33.94220 -118.48425 2475 ft 212 kts 264°
2026-04-20 05:44 33.94078 -118.50183 3181 ft 211 kts 265°
2026-04-20 05:45 33.93993 -118.51988 3502 ft 224 kts 269°
2026-04-20 05:45 33.94256 -118.53874 3716 ft 239 kts 295°
2026-04-20 05:45 33.95356 -118.55424 3991 ft 250 kts 326°
2026-04-20 05:45 33.97011 -118.56121 4324 ft 259 kts 355°
2026-04-20 05:46 33.98799 -118.55753 4674 ft 267 kts 24°
2026-04-20 05:46 34.00255 -118.54416 5041 ft 267 kts 49°
2026-04-20 05:46 34.01401 -118.52626 5333 ft 271 kts 53°
2026-04-20 05:46 34.02504 -118.50779 5572 ft 270 kts 54°
2026-04-20 05:47 34.03591 -118.48940 5892 ft 271 kts 54°
2026-04-20 05:47 34.04694 -118.47068 6206 ft 275 kts 54°
2026-04-20 05:47 34.05801 -118.45182 6514 ft 276 kts 54°
2026-04-20 05:47 34.06910 -118.43293 6819 ft 277 kts 54°
2026-04-20 05:48 34.08031 -118.41381 7125 ft 279 kts 54°
2026-04-20 05:48 34.09155 -118.39464 7434 ft 280 kts 54°
2026-04-20 05:48 34.10282 -118.37543 7733 ft 282 kts 54°
2026-04-20 05:48 34.11414 -118.35612 8031 ft 281 kts 54°
2026-04-20 05:49 34.12550 -118.33676 8341 ft 284 kts 54°
2026-04-20 05:49 34.13692 -118.31727 8641 ft 285 kts 54°
2026-04-20 05:49 34.14833 -118.29780 8929 ft 282 kts 54°
2026-04-20 05:49 34.15973 -118.27836 9234 ft 285 kts 54°
2026-04-20 05:50 34.17129 -118.25864 9549 ft 290 kts 54°
2026-04-20 05:50 34.18302 -118.23864 9864 ft 302 kts 54°
2026-04-20 05:50 34.19543 -118.21747 10196 ft 315 kts 54°
2026-04-20 05:50 34.20834 -118.19547 10506 ft 322 kts 54°
2026-04-20 05:51 34.22135 -118.17328 10807 ft 325 kts 54°
2026-04-20 05:51 34.23448 -118.15090 11120 ft 327 kts 54°
2026-04-20 05:51 34.24769 -118.12838 11403 ft 330 kts 54°
2026-04-20 05:51 34.26100 -118.10567 11703 ft 332 kts 54°
2026-04-20 05:52 34.27439 -118.08286 12002 ft 334 kts 54°
2026-04-20 05:52 34.28787 -118.05986 12302 ft 336 kts 54°
2026-04-20 05:52 34.30137 -118.03685 12606 ft 337 kts 54°
2026-04-20 05:52 34.31500 -118.01361 12904 ft 338 kts 54°
2026-04-20 05:53 34.32862 -117.99038 13217 ft 339 kts 54°
2026-04-20 05:53 34.34228 -117.96708 13503 ft 341 kts 54°
2026-04-20 05:53 34.35599 -117.94370 13800 ft 342 kts 54°
2026-04-20 05:53 34.36987 -117.92003 14104 ft 344 kts 54°
2026-04-20 05:54 34.38360 -117.89660 14401 ft 346 kts 54°
2026-04-20 05:54 34.39760 -117.87274 14707 ft 348 kts 54°
2026-04-20 05:54 34.41164 -117.84878 15013 ft 350 kts 54°
2026-04-20 05:54 34.42574 -117.82472 15317 ft 351 kts 54°
2026-04-20 05:55 34.43988 -117.80060 15615 ft 352 kts 54°
2026-04-20 05:55 34.45408 -117.77638 15909 ft 352 kts 54°
2026-04-20 05:55 34.46827 -117.75216 16209 ft 353 kts 54°
2026-04-20 05:55 34.48250 -117.72789 16506 ft 353 kts 54°
2026-04-20 05:56 34.49677 -117.70354 16810 ft 354 kts 54°
2026-04-20 05:56 34.51106 -117.67915 17109 ft 355 kts 54°
2026-04-20 05:56 34.52539 -117.65470 17417 ft 356 kts 54°
2026-04-20 05:56 34.53974 -117.63021 17711 ft 357 kts 54°
2026-04-20 05:57 34.55399 -117.60588 18004 ft 358 kts 54°
2026-04-20 05:57 34.56845 -117.58120 18308 ft 360 kts 54°
2026-04-20 05:57 34.58298 -117.55641 18606 ft 362 kts 54°
2026-04-20 05:57 34.59761 -117.53144 18911 ft 364 kts 54°
2026-04-20 05:58 34.61232 -117.50634 19213 ft 366 kts 54°
2026-04-20 05:58 34.62713 -117.48104 19518 ft 367 kts 54°
2026-04-20 05:58 34.64199 -117.45568 19816 ft 369 kts 54°
2026-04-20 05:58 34.65689 -117.43024 20112 ft 371 kts 54°
2026-04-20 05:59 34.67189 -117.40464 20418 ft 373 kts 54°
2026-04-20 05:59 34.68700 -117.37884 20720 ft 375 kts 54°
2026-04-20 05:59 34.70215 -117.35297 21021 ft 376 kts 54°
2026-04-20 05:59 34.71737 -117.32699 21322 ft 378 kts 54°
2026-04-20 06:00 34.73264 -117.30091 21629 ft 380 kts 54°
2026-04-20 06:00 34.74799 -117.27469 21923 ft 381 kts 54°
2026-04-20 06:00 34.76341 -117.24837 22220 ft 383 kts 54°
2026-04-20 06:00 34.77890 -117.22192 22525 ft 384 kts 54°
2026-04-20 06:01 34.79441 -117.19543 22825 ft 386 kts 54°
2026-04-20 06:01 34.80475 -117.17777 23027 ft 387 kts 54°
2026-04-20 06:01 34.82041 -117.15101 23327 ft 389 kts 54°
2026-04-20 06:01 34.83894 -117.12063 18079 ft 224 kts 51°
2026-04-20 06:02 34.85331 -117.09528 9878 ft 484 kts 57°
2026-04-20 06:02 34.86521 -117.07327 10113 ft 446 kts 56°
2026-04-20 06:02 34.88163 -117.04433 12348 ft 371 kts 54°
2026-04-20 06:02 34.89505 -117.02150 15415 ft 314 kts 54°
2026-04-20 06:03 34.90807 -116.99931 15610 ft 334 kts 54°
2026-04-20 06:03 34.92175 -116.97596 15972 ft 342 kts 54°
2026-04-20 06:03 34.93376 -116.95329 13383 ft 209 kts 31°
2026-04-20 06:03 34.92840 -116.96641 4203 ft 358 kts 232°